Find Starlink 30767

NORAD ID: 58126 Int'l Des: 2023-162 Owner: SPXS Country: US Constellation: starlink operational
LEOCIRCULAR

当前视图

正在加载3D地球...

About Starlink 30767

Starlink 30767 (NORAD 58126) is a starlink constellation satellite (v2 mini) launched Oct 22, 2023 by SPXS of US. It operates in LEO, CIRCULAR orbit with a mass of 730.00 kg.

即将过境

Passes for default location (London). Set your location on the main map for personalized predictions.

高度历史

Loading altitude history...

两行轨道根数

1 58126U 23162J 26229.27115098 .00001033 00000-0 47065-4 0 9993
2 58126 43.0050 302.4019 0001951 268.1572 91.9057 15.27577548156905
Epoch: Aug 17, 2026 • Age: 23 hours

当前状态

高度 485.5 km
远地点 / 近地点 N/A
速度 7.63 km/s
星下点 34.17°N, 28.83°E
发射日期 Oct 22, 2023
运行时间 2.8 years
类型 internet

技术详情

分类 Payload
质量 730.00 kg
干质量 700.00 kg
总质量 730.00 kg
长度 0.30 m
直径 4.10 m
跨度 29.00 m
形状 Box + pan
制造商 SPXS
平台类型 Starlink V2M
阶段状态 In Orbit
所有者/国家 SPXS/US

Most Searched